Regional Weather Roundup
Issued by NWS

Home | Current Version | Previous Version | Graphics & Text | Print | Product List | Glossary On
Versions: 1 2 3 4 5 6 7 8 9 10 11 12 13 14 15 16 17 18 19 20 21 22 23 24 25 26 27 28 29 30 31 32 33 34 35 36 37 38 39 40 41 42 43 44 45 46 47 48 49 50
000
ASUS45 KPSR 180910
RWRAZ

ARIZONA REGIONAL HOURLY WEATHER ROUNDUP
NATIONAL WEATHER SERVICE PHOENIX AZ
200 AM MST THU DEC 18 2014

NOTE: FAIR INDICATES FEW OR NO CLOUDS BELOW 12,000 FEET WITH NO
SIGNIFICANT WEATHER AND/OR OBSTRUCTIONS TO VISIBILITY.

AZZ001>003-036-181000-
NORTHWEST ARIZONA

CITY           SKY/WX    TMP DP  RH WIND       PRES   REMARKS
BULLHEAD CITY  CLOUDY    52  48  87 E3        30.12S
KINGMAN        CLOUDY    39  37  92 SE6       30.10S WCI  35
$$

AZZ004>008-015-016-018-181000-
NORTH CENTRAL ARIZONA

CITY           SKY/WX    TMP DP  RH WIND       PRES   REMARKS
GRAND CANYON   LGT SNOW  30  29  96 CALM      30.10R FOG
PRESCOTT       CLOUDY    34  30  85 CALM      30.11F
FLAGSTAFF      LGT SNOW  30  28  92 CALM      30.09S FOG
PAYSON         PTCLDY    32  32 100 CALM      30.12F
PAGE           CLOUDY    38  34  85 CALM      30.09S
$$

AZZ009>014-017-181000-
NORTHEAST ARIZONA

CITY           SKY/WX    TMP DP  RH WIND       PRES   REMARKS
WINSLOW        MOCLDY    32  29  88 CALM      30.10F
SAINT JOHNS    CLOUDY    31  29  92 S3        30.11S
WINDOW ROCK    LGT SNOW  32  28  85 CALM      30.10S FOG
SHOW LOW       CLOUDY    28  27  93 CALM      30.13S
$$

AZZ023-181000-
GREATER PHOENIX AREA

CITY           SKY/WX    TMP DP  RH WIND       PRES   REMARKS
PHOENIX        CLOUDY    53  49  86 E5        30.10F
BUCKEYE          N/A     45  45 100 NW6       30.12S
LUKE AFB       PTCLDY    45 N/A N/A NE5       30.11S
DEER VALLEY    MOCLDY    49  46  90 E5        30.10F
SCOTTSDALE     CLOUDY    51  47  86 CALM      30.12F
MESA-GATEWAY   PTCLDY    46  46 100 CALM      30.14S
$$

AZZ027-028-181000-
SOUTHWEST MARICOPA COUNTY AND PINAL COUNTY

CITY           SKY/WX    TMP DP  RH WIND       PRES   REMARKS
CASA GRANDE    PTCLDY    45  45 100 CALM      30.12S
GILA BEND      PTSUNNY   47  46  95 SE3       30.12S
$$

AZZ503-504-507>509-181000-
SOUTHEAST ARIZONA

CITY           SKY/WX    TMP DP  RH WIND       PRES   REMARKS
TUCSON         MOCLDY    48  46  93 CALM      30.13F FOG
DAVIS-MONTHAN  CLOUDY    48  48 100 NE3       30.11S
NOGALES        CLOUDY    46  43  89 S3        30.12F
SIERRA VISTA   LGT RAIN  43  43 100 CALM      30.13F
DOUGLAS        CLOUDY    42  40  92 NW3       30.14S
SAFFORD        MOCLDY    44  42  93 CALM      30.13F
$$

AZZ020-021-025-026-031-181000-
SOUTHWEST ARIZONA

CITY           SKY/WX    TMP DP  RH WIND       PRES   REMARKS
YUMA           CLOUDY   N/A N/A N/A CALM      30.09F
$$

CAZ031-033-041-043-047-048-061-181000-
SOUTHERN CALIFORNIA

CITY           SKY/WX    TMP DP  RH WIND       PRES   REMARKS
DOWNTOWN L.A.  PTCLDY    54  44  69 CALM      30.10F
L.A. AIRPORT   MOCLDY    54  45  71 NE3       30.11S
SAN DIEGO      PTCLDY    56  44  64 CALM      30.14S
BURBANK        PTCLDY    48  43  82 CALM      30.10S
ONTARIO        MOCLDY    51  44  77 NE3       30.11S
RIVERSIDE      CLEAR     49  45  86 NE3       30.11F
PALM SPRINGS   PTCLDY    54  49  83 CALM      30.11F
EL CENTRO NAS  PTCLDY    51  43  74 W10       30.08F
IMPERIAL       PTCLDY    52  47  83 CALM      30.08F
BLYTHE         CLOUDY    52  50  93 N3        30.09F
NEEDLES        CLOUDY    52  47  83 CALM      30.10F
$$

NVZ020-UTZ003-181000-
SOUTHERN NEVADA-UTAH

CITY           SKY/WX    TMP DP  RH WIND       PRES   REMARKS
LAS VEGAS      CLOUDY    49  43  80 S3        30.04F
SALT LAKE CITY PTCLDY    32  29  88 E5        30.06S WCI  27
$$

NMZ009-TXZ055-181000-
NEW MEXICO-WEST TEXAS

CITY           SKY/WX    TMP DP  RH WIND       PRES   REMARKS
ALBUQUERQUE    PTCLDY    32  30  92 E6        30.12R WCI  26
EL PASO        PTCLDY    41  34  76 SE9       30.13R
$$


........................KEY........................
SKY/WX - SKY CONDITION/WEATHER
TMP    - TEMPERATURE IN FAHRENHEIT
DP     - DEW POINT IN FAHRENHEIT
RH     - RELATIVE HUMIDITY IN PERCENT
WIND   - DIRECTION AND SPEED IN MILES PER HOUR (MPH)
VRB    - VARIABLE WIND DIRECTION
PRES   - MEAN SEA LEVEL PRESSURE IN INCHES OF MERCURY
         F - FALLING PRESSURE   R - RISING PRESSURE
         S - STEADY PRESSURE
VSB    - VISIBILITY IN MILES
HX     - HEAT INDEX IN FAHRENHEIT
WCI    - WIND CHILL INDEX IN FAHRENHEIT
TC     - TEMPERATURE IN CELSIUS WHICH IS ALSO KNOWN AS
         TEMPERATURE IN CENTIGRADE
AFB    - AIR FORCE BASE
         LUKE AFB IS LUKE AIR FORCE BASE
         DAVIS-MONTHAN IS DAVIS-MONTHAN AIR FORCE BASE
NAS    - NAVAL AIR STATION
         EL CENTRO NAS IS EL CENTRO NAVAL AIR STATION
N/A    - NOT AVAILABLE



USA.gov is the U.S. government's official web portal to all federal, state and local government web resources and services.